TimeEDT,TemperatureF,Dew PointF,Humidity,Sea Level PressureIn,VisibilityMPH,Wind Direction,Wind SpeedMPH,Gust SpeedMPH,PrecipitationIn,Events,Conditions,WindDirDegrees,DateUTC
12:56 AM,37.9,27.0,65,29.95,10.0,WNW,15.0,-,N/A,,Clear,300,2013-03-28 04:56:00
1:56 AM,37.0,27.0,67,29.95,10.0,WNW,12.7,-,N/A,,Clear,300,2013-03-28 05:56:00
2:56 AM,37.0,27.0,67,29.94,10.0,NW,10.4,-,N/A,,Clear,310,2013-03-28 06:56:00
3:56 AM,36.0,28.0,73,29.94,10.0,NW,11.5,-,N/A,,Clear,310,2013-03-28 07:56:00
4:56 AM,36.0,27.0,70,29.94,10.0,NW,12.7,-,N/A,,Clear,310,2013-03-28 08:56:00
5:56 AM,36.0,26.1,67,29.94,10.0,NW,10.4,-,N/A,,Clear,310,2013-03-28 09:56:00
6:56 AM,35.1,26.1,70,29.96,10.0,NW,10.4,-,N/A,,Clear,320,2013-03-28 10:56:00
7:56 AM,37.0,27.0,67,29.97,10.0,NW,9.2,-,N/A,,Partly Cloudy,310,2013-03-28 11:56:00
8:56 AM,41.0,27.0,57,29.98,10.0,NW,12.7,19.6,N/A,,Partly Cloudy,310,2013-03-28 12:56:00
9:56 AM,44.1,27.0,51,29.98,10.0,NNW,18.4,24.2,N/A,,Scattered Clouds,340,2013-03-28 13:56:00
10:56 AM,45.0,27.0,49,29.99,10.0,North,13.8,21.9,N/A,,Mostly Cloudy,350,2013-03-28 14:56:00
11:56 AM,46.0,28.9,51,30.00,10.0,NNW,12.7,-,N/A,,Mostly Cloudy,330,2013-03-28 15:56:00
12:56 PM,46.0,28.9,51,30.00,10.0,North,13.8,-,N/A,,Mostly Cloudy,360,2013-03-28 16:56:00
1:56 PM,48.0,28.9,48,29.99,10.0,NNW,13.8,20.7,N/A,,Mostly Cloudy,330,2013-03-28 17:56:00
2:56 PM,46.0,32.0,58,30.00,9.0,NNW,18.4,24.2,0.00,,Mostly Cloudy,330,2013-03-28 18:56:00
3:56 PM,48.0,28.0,46,29.99,10.0,NNW,17.3,-,N/A,,Mostly Cloudy,330,2013-03-28 19:56:00
4:56 PM,50.0,28.9,44,30.00,10.0,North,13.8,-,N/A,,Mostly Cloudy,350,2013-03-28 20:56:00
5:56 PM,46.9,28.0,48,30.01,10.0,North,12.7,-,N/A,,Mostly Cloudy,350,2013-03-28 21:56:00
6:56 PM,46.0,28.0,50,30.04,10.0,NW,12.7,-,N/A,,Overcast,320,2013-03-28 22:56:00
7:56 PM,45.0,28.0,52,30.05,10.0,WNW,9.2,-,N/A,,Overcast,300,2013-03-28 23:56:00
8:56 PM,44.1,28.0,53,30.06,10.0,NW,10.4,-,N/A,,Clear,320,2013-03-29 00:56:00
9:56 PM,43.0,28.9,58,30.08,10.0,NW,11.5,-,N/A,,Overcast,320,2013-03-29 01:56:00
10:56 PM,42.1,28.0,58,30.09,10.0,NW,10.4,-,N/A,,Mostly Cloudy,310,2013-03-29 02:56:00
11:56 PM,42.1,28.0,58,30.09,10.0,NW,15.0,-,N/A,,Overcast,310,2013-03-29 03:56:00